Date String (YYYY-MM-DD hh:mm:ss) UTC,Instrument flags,Ambient pressure (hPa),Sample flow (lpm),Bypass flow (lpm),Sample temperature (°C),Ambient temperature (°C),ASC tube jacket temperature (°C),LED temperature (°C),Box temperature (°C),Sample RH (%),Span deviation,Mass concentration (μg/m³),Mass concentration (μg/m³),Mass concentration (μg/m³)
DateTimeUTC,F1_M11,P_M11,Q1_M11,Q2_M11,T1_M11,T2_M11,T3_M11,T4_M11,T5_M11,U1_M11,ZSPAN_M11,X0_M11,X2_M11,X1_M11
2022-12-23 15:00:00,,0832.1,4.99,0.00,21.4,20.8,00.0,30.3,23.0,02.5,0000.9,0010.16,0005.78,0005.26
2022-12-23 15:01:00,,0832.2,5.02,0.00,21.6,21.9,00.0,30.3,23.3,02.5,0001.3,0010.16,0005.81,0005.26
2022-12-23 15:02:00,,0832.1,4.97,0.00,21.7,22.3,00.0,30.4,23.5,02.5,0002.0,0010.24,0005.84,0005.26
2022-12-23 15:03:00,,0832.1,5.01,0.00,21.7,21.4,00.0,30.4,23.2,02.5,0002.2,0010.16,0005.79,0005.23
2022-12-23 15:04:00,,0832.1,4.99,0.00,21.5,20.3,00.0,30.4,22.9,02.5,0001.9,0010.08,0005.77,0005.23
2022-12-23 15:05:00,,0832.1,5.04,0.00,21.4,19.6,00.0,30.4,22.7,02.5,0001.6,0010.14,0005.75,0005.21
2022-12-23 15:06:00,,0832.1,5.00,0.00,21.4,20.2,00.0,30.4,22.9,02.5,0001.5,0010.05,0005.77,0005.22
2022-12-23 15:07:00,,0832.1,4.99,0.00,21.5,21.6,00.0,30.3,23.2,02.5,0001.5,0009.91,0005.79,0005.23
2022-12-23 15:08:00,,0832.1,4.98,0.00,21.7,22.5,00.0,30.3,23.5,02.4,0001.4,0009.94,0005.80,0005.24
2022-12-23 15:09:00,,0832.2,5.03,0.00,21.7,22.1,00.0,30.4,23.5,02.4,0001.6,0009.97,0005.84,0005.25
2022-12-23 15:10:00,,0832.3,4.96,0.00,21.7,21.4,00.0,30.4,23.3,02.4,0001.9,0009.95,0005.85,0005.26
2022-12-23 15:11:00,,0832.1,5.03,0.00,21.6,20.6,00.0,30.5,23.1,02.4,0001.9,0009.71,0005.86,0005.27
2022-12-23 15:12:00,,0832.1,5.02,0.00,21.5,20.1,00.0,30.4,22.9,02.4,0001.9,0009.62,0005.84,0005.27
2022-12-23 15:13:00,,0832.1,4.96,0.00,21.5,20.6,00.0,30.4,23.0,02.4,0001.8,0009.73,0005.80,0005.27
2022-12-23 15:14:00,,0832.2,5.01,0.00,21.6,21.9,00.0,30.4,23.4,02.4,0002.2,0009.94,0005.80,0005.29
2022-12-23 15:15:00,,0832.3,4.98,0.00,21.8,22.7,00.0,30.4,23.6,02.4,0002.4,0009.96,0005.79,0005.29
2022-12-23 15:16:00,,0832.2,5.03,0.00,21.8,22.3,00.0,30.5,23.6,02.4,0002.7,0009.85,0005.79,0005.29
2022-12-23 15:17:00,,0832.2,4.95,0.00,21.8,21.6,00.0,30.5,23.5,02.4,0002.9,0009.72,0005.76,0005.27
2022-12-23 15:18:00,,0832.3,5.03,0.00,21.8,21.0,00.0,30.5,23.3,02.4,0003.0,0009.70,0005.76,0005.27
2022-12-23 15:19:00,,0832.3,5.01,0.00,21.7,20.5,00.0,30.6,23.2,02.4,0003.1,0009.76,0005.79,0005.27
2022-12-23 15:20:00,,0832.3,4.96,0.00,21.7,20.4,00.0,30.5,23.2,02.4,0002.7,0009.85,0005.91,0005.39
2022-12-23 15:21:00,,0832.4,5.02,0.00,21.7,21.6,00.0,30.5,23.4,02.4,0003.2,0010.10,0006.21,0005.72
2022-12-23 15:22:00,,0832.3,4.98,0.00,21.9,22.4,00.0,30.5,23.7,02.4,0003.4,0010.20,0006.38,0005.90
2022-12-23 15:23:00,,0832.3,5.02,0.00,21.9,22.0,00.0,30.6,23.7,02.4,0003.3,0010.71,0006.51,0006.02
2022-12-23 15:24:00,,0832.3,5.03,0.00,21.9,21.4,00.0,30.6,23.5,02.4,0002.8,0011.21,0006.68,0006.17
2022-12-23 15:25:00,,0832.3,4.95,0.00,21.8,20.9,00.0,30.6,23.4,02.4,0002.7,0011.05,0006.82,0006.31
2022-12-23 15:26:00,,0832.3,5.02,0.00,21.8,20.5,00.0,30.6,23.3,02.4,0002.7,0011.28,0007.07,0006.54
2022-12-23 15:27:00,,0832.3,5.02,0.00,21.8,21.2,00.0,30.6,23.4,02.4,0002.6,0011.52,0007.30,0006.79
2022-12-23 15:28:00,,0832.3,4.97,0.00,21.9,22.3,00.0,30.6,23.7,02.4,0002.7,0011.75,0007.46,0006.95
2022-12-23 15:29:00,,0832.2,5.03,0.00,22.0,22.4,00.0,30.6,23.8,02.4,0002.8,0011.93,0007.53,0007.04
2022-12-23 15:30:00,,0832.3,4.95,0.00,22.0,21.7,00.0,30.7,23.6,02.4,0002.7,0012.07,0007.62,0007.15
2022-12-23 15:31:00,,0832.4,5.02,0.00,21.9,21.0,00.0,30.7,23.5,02.4,0002.8,0012.39,0007.61,0007.12
2022-12-23 15:32:00,,0832.6,5.02,0.00,21.8,20.5,00.0,30.7,23.3,02.5,0002.2,0012.25,0007.37,0006.85
2022-12-23 15:33:00,,0832.6,4.95,0.00,21.8,20.7,00.0,30.7,23.3,02.5,0002.1,0012.18,0007.26,0006.72
2022-12-23 15:34:00,,0832.5,5.02,0.00,21.9,21.9,00.0,30.6,23.7,02.5,0002.3,0011.68,0007.15,0006.64
2022-12-23 15:35:00,,0832.6,4.96,0.00,22.0,22.6,00.0,30.7,23.9,02.5,0002.7,0011.26,0007.11,0006.60
2022-12-23 15:36:00,,0832.6,5.03,0.00,22.0,21.8,00.0,30.7,23.7,02.5,0002.2,0011.58,0007.13,0006.63
2022-12-23 15:37:00,,0832.7,5.03,0.00,22.0,21.1,00.0,30.7,23.5,02.5,0001.9,0011.46,0006.99,0006.50
2022-12-23 15:38:00,,0832.6,4.97,0.00,21.9,20.5,00.0,30.7,23.3,02.5,0001.9,0011.32,0006.87,0006.37
2022-12-23 15:39:00,,0832.7,5.00,0.00,21.8,20.2,00.0,30.7,23.2,02.5,0002.1,0011.23,0006.83,0006.32
2022-12-23 15:40:00,,0832.7,5.03,0.00,21.9,21.2,00.0,30.7,23.5,02.5,0001.8,0011.07,0006.81,0006.31
2022-12-23 15:41:00,,0832.7,4.97,0.00,22.0,22.4,00.0,30.7,23.8,02.5,0001.4,0011.01,0006.80,0006.30
2022-12-23 15:42:00,,0832.7,5.04,0.00,22.1,22.2,00.0,30.7,23.9,02.5,0001.7,0010.78,0006.83,0006.31
2022-12-23 15:43:00,,0832.7,4.97,0.00,22.0,21.6,00.0,30.8,23.7,02.5,0002.0,0010.80,0006.82,0006.30
2022-12-23 15:44:00,,0832.7,5.01,0.00,22.0,21.2,00.0,30.8,23.6,02.5,0002.3,0010.75,0006.84,0006.34
2022-12-23 15:45:00,,0832.7,5.02,0.00,22.0,20.8,00.0,30.8,23.5,02.5,0003.0,0010.78,0006.89,0006.37
2022-12-23 15:46:00,,0832.7,4.99,0.00,21.9,20.5,00.0,30.8,23.4,02.5,0003.5,0010.72,0006.83,0006.31
2022-12-23 15:47:00,,0832.8,4.97,0.00,21.9,20.9,00.0,30.7,23.5,02.5,0003.5,0010.23,0006.66,0006.16
2022-12-23 15:48:00,,0832.8,5.03,0.00,22.0,22.1,00.0,30.7,23.8,02.5,0003.4,0010.18,0006.58,0006.05
2022-12-23 15:49:00,,0832.8,4.97,0.00,22.1,22.6,00.0,30.8,24.0,02.4,0003.4,0010.06,0006.49,0005.95
2022-12-23 15:50:00,,0832.8,5.05,0.00,22.1,22.1,00.0,30.8,23.9,02.5,0003.3,0009.98,0006.40,0005.88
2022-12-23 15:51:00,,0832.8,4.95,0.00,22.1,21.5,00.0,30.8,23.8,02.5,0003.5,0009.98,0006.30,0005.78
2022-12-23 15:52:00,,0832.8,5.03,0.00,22.1,21.1,00.0,30.8,23.7,02.5,0004.0,0010.05,0006.19,0005.68
2022-12-23 15:53:00,,0832.9,5.03,0.00,22.0,20.7,00.0,30.8,23.6,02.5,0003.9,0009.86,0006.04,0005.58
2022-12-23 15:54:00,,0832.9,5.00,0.00,22.0,20.6,00.0,30.8,23.5,02.5,0004.2,0009.72,0005.99,0005.53
2022-12-23 15:55:00,,0832.9,4.98,0.00,22.0,21.7,00.0,30.8,23.7,02.5,0004.0,0009.66,0005.92,0005.46
2022-12-23 15:56:00,,0832.8,5.03,0.00,22.2,22.7,00.0,30.8,24.0,02.4,0003.5,0009.63,0005.86,0005.39
2022-12-23 15:57:00,,0832.8,4.96,0.00,22.2,22.5,00.0,30.9,24.0,02.4,0003.0,0009.61,0005.80,0005.34
2022-12-23 15:58:00,,0832.7,5.05,0.00,22.2,21.9,00.0,30.9,23.9,02.4,0002.9,0009.66,0005.80,0005.33
2022-12-23 15:59:00,,0832.8,4.95,0.00,22.2,21.4,00.0,30.9,23.8,02.4,0002.5,0009.60,0005.79,0005.34
